Vero Beach, FL

9:06 AM EDT on September 26, 2017 (GMT -0400)
Vero Beach Municipal

Weather History for KVRB - August, 2012

Change the Weather History Date:

Thursday, August 9, 2012

  Actual Average Record
Temperature  
Mean Temperature 83 °F 82 °F  
Max Temperature 92 °F 90 °F 96 °F (1991)
Min Temperature 73 °F 74 °F 69 °F (2006)
Degree Days  
Heating Degree Days 0 0  
Month to date heating degree days 0 0  
Since 1 June heating degree days 0 0  
Since 1 July heating degree days 0 0  
Cooling Degree Days 18 17  
Month to date cooling degree days 156 153  
Year to date cooling degree days 2160 1933  
Since 1 June cooling degree days 1121 1127  
Growing Degree Days 32 (Base 50)    
Moisture  
Dew Point 74 °F    
Average Humidity 73    
Maximum Humidity 94    
Minimum Humidity 52    
Precipitation  
Precipitation 0.00 in 0.23 in 1.96 in (1991)
Month to date precipitation 0.35 1.90  
Year to date precipitation 21.08 29.57  
Sea Level Pressure  
Sea Level Pressure 30.00 in    
Wind  
Wind Speed 7 mph (ESE)    
Max Wind Speed 17 mph    
Max Gust Speed 22 mph    
Visibility 10 miles    
Events      
T = Trace of Precipitation, MM = Missing Value Source: NWS Daily Summary

Daily Weather History Graph

Daily Weather History Graph

Search for Another Location

Airport or City:

Trip Planner

Search our weather history database for the weather conditions in past years. The results will help you decide how hot, cold, wet, or windy it might be!

Date:

Astronomy

Aug. 09, 2012 Rise Set
Actual Time 6:49 AM EDT 8:04 PM EDT
Civil Twilight 6:24 AM EDT 8:29 PM EDT
Nautical Twilight 5:55 AM EDT 8:58 PM EDT
Astronomical Twilight 5:24 AM EDT 9:28 PM EDT
Moon 12:02 AM EDT (8/9) 1:42 PM EDT (8/9)
Length of Visible Light 14h 04m
Length of Day
13h 15m
Waning Gibbous, 51% of the Moon is Illuminated
Aug 9
Waning Gibbous
Aug 9
Last Quarter
Aug 17
New
Aug 24
First Quarter
Aug 31
Full

Hourly Weather History & Observations

Time (EDT) Temp. Heat Index Dew Point Humidity Pressure Visibility Wind Dir Wind Speed Gust Speed Precip Events Conditions
12:53 AM 75.9 °F - 72.0 °F 87% 30.03 in 10.0 mi NNE 3.5 mph - N/A   Partly Cloudy
1:53 AM 75.9 °F - 73.0 °F 91% 30.01 in 10.0 mi Calm Calm - N/A   Partly Cloudy
2:49 AM 75.2 °F - 73.4 °F 94% 30.01 in 10.0 mi Calm Calm - N/A   Mostly Cloudy
2:53 AM 75.9 °F - 73.0 °F 91% 30.00 in 10.0 mi Calm Calm - N/A   Mostly Cloudy
3:11 AM 75.2 °F - 73.4 °F 94% 30.00 in 10.0 mi NNW 3.5 mph - N/A   Scattered Clouds
3:53 AM 75.9 °F - 73.0 °F 91% 29.99 in 10.0 mi Calm Calm - N/A   Partly Cloudy
4:53 AM 75.0 °F - 73.0 °F 94% 29.99 in 10.0 mi Calm Calm - N/A   Clear
5:53 AM 73.9 °F - 72.0 °F 93% 29.99 in 10.0 mi Calm Calm - N/A   Clear
6:53 AM 73.9 °F - 72.0 °F 93% 30.02 in 10.0 mi Calm Calm - N/A   Clear
7:53 AM 79.0 °F - 75.9 °F 90% 30.04 in 10.0 mi Calm Calm - N/A   Clear
8:53 AM 84.9 °F 94.1 °F 75.9 °F 74% 30.04 in 10.0 mi Calm Calm - N/A   Partly Cloudy
9:53 AM 87.1 °F 95.4 °F 73.9 °F 65% 30.04 in 10.0 mi SSE 5.8 mph - N/A   Partly Cloudy
10:53 AM 89.1 °F 99.1 °F 75.0 °F 63% 30.05 in 10.0 mi ESE 11.5 mph - N/A   Scattered Clouds
11:53 AM 89.1 °F 98.0 °F 73.9 °F 61% 30.04 in 10.0 mi ESE 8.1 mph - N/A   Clear
12:53 PM 90.0 °F 96.4 °F 71.1 °F 54% 30.02 in 10.0 mi East 10.4 mph - N/A   Scattered Clouds
1:53 PM 91.0 °F 98.2 °F 72.0 °F 53% 30.01 in 10.0 mi East 12.7 mph - N/A   Clear
2:53 PM 90.0 °F 99.0 °F 73.9 °F 59% 29.99 in 10.0 mi ESE 15.0 mph 21.9 mph N/A   Partly Cloudy
3:53 PM 89.1 °F 99.1 °F 75.0 °F 63% 29.96 in 10.0 mi ESE 13.8 mph - N/A   Partly Cloudy
4:53 PM 89.1 °F 99.1 °F 75.0 °F 63% 29.95 in 10.0 mi East 13.8 mph 21.9 mph N/A   Clear
5:53 PM 88.0 °F 97.5 °F 75.0 °F 65% 29.96 in 10.0 mi East 11.5 mph 18.4 mph N/A   Partly Cloudy
6:53 PM 86.0 °F 95.1 °F 75.0 °F 70% 29.96 in 10.0 mi ESE 11.5 mph - N/A   Clear
7:53 PM 82.9 °F 89.4 °F 73.9 °F 74% 29.97 in 10.0 mi ESE 11.5 mph - N/A   Clear
8:53 PM 82.9 °F 90.2 °F 75.0 °F 77% 29.99 in 10.0 mi SE 6.9 mph - N/A   Clear
9:53 PM 82.9 °F 90.2 °F 75.0 °F 77% 30.01 in 10.0 mi SE 8.1 mph - N/A   Clear
10:53 PM 82.0 °F 88.6 °F 75.0 °F 79% 30.02 in 10.0 mi SSE 5.8 mph - N/A   Clear
11:53 PM 81.0 °F 86.7 °F 75.0 °F 82% 30.01 in 10.0 mi South 4.6 mph - N/A   Clear